Detroit Metro, MI

6:43 AM EDT on April 25, 2017 (GMT -0400)
Detroit Metro Wayne County

Weather History for KDTW - January, 2014

Change the Weather History Date:

Saturday, January 18, 2014

  Actual Average Record
Temperature  
Mean Temperature 13 °F 25 °F  
Max Temperature 19 °F 32 °F 58 °F (1973)
Min Temperature 6 °F 19 °F -18 °F (1976)
Degree Days  
Heating Degree Days 52 40  
Month to date heating degree days 822 710  
Since 1 July heating degree days 3301 3007  
Cooling Degree Days 0 0  
Month to date cooling degree days 0 0  
Year to date cooling degree days 0 0  
Moisture  
Dew Point 9 °F    
Average Humidity 78    
Maximum Humidity 88    
Minimum Humidity 67    
Precipitation  
Precipitation T in 0.07 in 0.87 in (1929)
Month to date precipitation 2.30 1.20  
Year to date precipitation 2.30 1.20  
Snow  
Snow 0.30 in 0.40 in 5.20 in (1892)
Month to date snowfall 26.4 7.4  
Since 1 July snowfall 43.1 18.6  
Snow Depth 6.00 in    
Sea Level Pressure  
Sea Level Pressure 29.94 in    
Wind  
Wind Speed 8 mph (South)    
Max Wind Speed 17 mph    
Max Gust Speed 22 mph    
Visibility 6 miles    
Events Snow    
T = Trace of Precipitation, MM = Missing Value Source: NWS Daily Summary

Daily Weather History Graph

Daily Weather History Graph

Search for Another Location

Airport or City:

Trip Planner

Search our weather history database for the weather conditions in past years. The results will help you decide how hot, cold, wet, or windy it might be!

Date:

Astronomy

Jan. 18, 2014 Rise Set
Actual Time 7:57 AM EST 5:30 PM EST
Civil Twilight 7:27 AM EST 6:00 PM EST
Nautical Twilight 6:52 AM EST 6:35 PM EST
Astronomical Twilight 6:19 AM EST 7:08 PM EST
Moon 8:14 PM EST (1/18) 8:53 AM EST (1/18)
Length of Visible Light 10h 33m
Length of Day
9h 32m
Waning Gibbous, 94% of the Moon is Illuminated
Jan 18
Waning Gibbous
Jan 24
Last Quarter
Jan 30
New
Feb 6
First Quarter
Feb 14
Full

Hourly Weather History & Observations

Time (EST) Temp. Windchill Dew Point Humidity Pressure Visibility Wind Dir Wind Speed Gust Speed Precip Events Conditions
12:53 AM 17.1 °F 5.0 °F 10.0 °F 74% 29.94 in 4.0 mi SW 10.4 mph - 0.00 in Snow Light Snow
1:53 AM 15.1 °F 3.3 °F 8.1 °F 74% 29.93 in 8.0 mi SW 9.2 mph - 0.00 in Snow Light Snow
2:53 AM 12.9 °F -1.6 °F 6.1 °F 74% 29.95 in 10.0 mi South 12.7 mph - 0.00 in   Scattered Clouds
3:53 AM 10.9 °F -2.6 °F 6.1 °F 81% 29.96 in 10.0 mi SSW 10.4 mph - N/A   Partly Cloudy
4:53 AM 9.0 °F -7.3 °F 3.9 °F 80% 29.96 in 10.0 mi SSW 13.8 mph - N/A   Partly Cloudy
5:53 AM 7.0 °F -4.5 °F 3.0 °F 84% 29.96 in 9.0 mi South 6.9 mph - N/A   Scattered Clouds
6:53 AM 7.0 °F -5.7 °F 3.0 °F 84% 29.96 in 9.0 mi South 8.1 mph - N/A   Scattered Clouds
7:53 AM 6.1 °F -5.6 °F 3.0 °F 87% 29.95 in 9.0 mi South 6.9 mph - N/A   Mostly Cloudy
8:53 AM 8.1 °F -4.3 °F 5.0 °F 87% 29.96 in 8.0 mi South 8.1 mph - N/A   Mostly Cloudy
9:00 AM 8.6 °F -4.7 °F 6.8 °F 92% 29.93 in 7.0 mi South 9.2 mph - N/A   Overcast
9:53 AM 12.0 °F -0.4 °F 8.1 °F 84% 29.98 in 4.0 mi South 9.2 mph - N/A   Overcast
10:19 AM 12.2 °F -1.0 °F 8.6 °F 85% 29.95 in 2.0 mi South 10.4 mph - 0.00 in Snow Light Snow
10:53 AM 14.0 °F -2.0 °F 9.0 °F 80% 30.00 in 2.0 mi SSW 16.1 mph - 0.00 in Snow Light Snow
11:04 AM 14.0 °F 0.5 °F 8.6 °F 79% 29.96 in 1.5 mi SSW 11.5 mph - 0.00 in Snow Light Snow
11:27 AM 15.8 °F 1.4 °F 8.6 °F 73% 29.96 in 2.5 mi South 13.8 mph - 0.00 in Snow Light Snow
11:53 AM 16.0 °F 2.9 °F 10.0 °F 77% 29.98 in 2.5 mi South 11.5 mph - 0.00 in Snow Light Snow
11:59 AM 15.8 °F 2.7 °F 10.4 °F 79% 29.94 in 4.0 mi SSW 11.5 mph - 0.00 in Snow Light Snow
12:53 PM 17.1 °F 4.3 °F 10.0 °F 74% 29.96 in 7.0 mi South 11.5 mph - 0.00 in Snow Light Snow
1:00 PM 17.6 °F 6.4 °F 10.4 °F 73% 29.92 in 6.0 mi South 9.2 mph - 0.00 in Snow Light Snow
1:53 PM 18.0 °F 7.7 °F 10.9 °F 74% 29.93 in 6.0 mi South 8.1 mph - 0.00 in Snow Light Snow
2:53 PM 18.0 °F 8.7 °F 10.9 °F 74% 29.94 in 8.0 mi South 6.9 mph - 0.00 in Snow Light Snow
3:53 PM 19.0 °F 11.1 °F 10.9 °F 71% 29.93 in 9.0 mi South 5.8 mph - 0.00 in Snow Light Snow
4:53 PM 19.0 °F 6.1 °F 10.9 °F 71% 29.93 in 9.0 mi SSE 12.7 mph - 0.00 in   Overcast
5:53 PM 17.1 °F 7.6 °F 10.0 °F 74% 29.94 in 10.0 mi SSE 6.9 mph - N/A   Overcast
6:53 PM 17.1 °F 6.6 °F 10.9 °F 77% 29.95 in 9.0 mi SSE 8.1 mph - N/A   Overcast
7:53 PM 17.1 °F 10.0 °F 10.9 °F 77% 29.94 in 8.0 mi South 4.6 mph - N/A   Overcast
8:53 PM 17.1 °F 11.7 °F 10.9 °F 77% 29.92 in 7.0 mi South 3.5 mph - 0.00 in Snow Light Snow
9:22 PM 15.8 °F 10.2 °F 12.2 °F 86% 29.87 in 2.0 mi South 3.5 mph - 0.00 in Snow Light Snow
9:53 PM 16.0 °F - 12.9 °F 88% 29.90 in 2.5 mi Calm Calm - 0.00 in Snow Light Snow
10:03 PM 15.8 °F - 12.2 °F 86% 29.86 in 4.0 mi Calm Calm - 0.00 in Snow Light Snow
10:53 PM 17.1 °F - 14.0 °F 88% 29.88 in 5.0 mi Calm Calm - 0.00 in Snow Light Snow
11:53 PM 17.1 °F - 14.0 °F 88% 29.84 in 4.0 mi Calm Calm - 0.00 in Snow Light Snow